Hastings, NE

10:26 PM CDT on July 20, 2017 (GMT -0500)
Hastings Municipal

Weather History for KHSI - December, 2012

Change the Weather History Date:

Thursday, December 6, 2012

  Actual Average Record
Temperature  
Mean Temperature 40 °F 30 °F  
Max Temperature 51 °F 39 °F 79 °F (1939)
Min Temperature 29 °F 20 °F -11 °F (1950)
Degree Days  
Heating Degree Days 25 35  
Month to date heating degree days 120 206  
Since 1 July heating degree days 1379 1487  
Cooling Degree Days 0 0  
Month to date cooling degree days 0 0  
Year to date cooling degree days 1339 1077  
Moisture  
Dew Point 21 °F    
Average Humidity 44    
Maximum Humidity 61    
Minimum Humidity 26    
Precipitation  
Precipitation T in 0.04 in 1.53 in (1913)
Month to date precipitation T 0.23  
Year to date precipitation 18.78 26.73  
Snow  
Snow 0.00 in 0.20 in 4.50 in (1994)
Month to date snowfall 0.0 1.0  
Since 1 July snowfall 0.3 4.8  
Snow Depth 0.00 in    
Sea Level Pressure  
Sea Level Pressure 29.93 in    
Wind  
Wind Speed 12 mph (North)    
Max Wind Speed 25 mph    
Max Gust Speed 32 mph    
Visibility 10 miles    
Events      
T = Trace of Precipitation, MM = Missing Value Source: NWS Daily Summary

Daily Weather History Graph

Daily Weather History Graph

Search for Another Location

Airport or City:

Trip Planner

Search our weather history database for the weather conditions in past years. The results will help you decide how hot, cold, wet, or windy it might be!

Date:

Astronomy

Dec. 06, 2012 Rise Set
Actual Time 7:43 AM CST 5:06 PM CST
Civil Twilight 7:12 AM CST 5:37 PM CST
Nautical Twilight 6:38 AM CST 6:11 PM CST
Astronomical Twilight 6:05 AM CST 6:44 PM CST
Moon No Moon Rise 12:35 PM CST (12/6)
Length of Visible Light 10h 24m
Length of Day
9h 23m
Waning Gibbous, 49% of the Moon is Illuminated
Dec 6
Waning Gibbous
Dec 13
New
Dec 19
First Quarter
Dec 28
Full
Jan 4
Last Quarter

Hourly Weather History & Observations

Time (CST) Temp. Windchill Dew Point Humidity Pressure Visibility Wind Dir Wind Speed Gust Speed Precip Events Conditions
12:53 AM 46.0 °F 40.6 °F 21.0 °F 37% 29.83 in 10.0 mi South 11.5 mph 19.6 mph N/A   Clear
1:53 AM 46.0 °F 40.2 °F 21.9 °F 39% 29.82 in 10.0 mi SSW 12.7 mph 20.7 mph N/A   Clear
2:53 AM 45.0 °F 39.7 °F 21.9 °F 40% 29.83 in 10.0 mi SSW 10.4 mph - N/A   Clear
3:53 AM 44.1 °F 39.0 °F 23.0 °F 43% 29.81 in 10.0 mi South 9.2 mph - N/A   Clear
4:53 AM 43.0 °F 41.3 °F 23.0 °F 45% 29.83 in 10.0 mi SW 3.5 mph - N/A   Clear
5:53 AM 39.9 °F 37.8 °F 24.1 °F 53% 29.86 in 10.0 mi West 3.5 mph - N/A   Clear
6:53 AM 39.9 °F - 26.1 °F 58% 29.88 in 10.0 mi Calm Calm - N/A   Partly Cloudy
7:53 AM 45.0 °F 38.5 °F 28.9 °F 53% 29.89 in 10.0 mi North 13.8 mph - N/A   Clear
8:53 AM 46.0 °F 39.0 °F 28.9 °F 51% 29.92 in 10.0 mi North 17.3 mph - N/A   Clear
9:53 AM 46.9 °F - 25.0 °F 42% 29.94 in 10.0 mi NNE 17.3 mph 25.3 mph N/A   Clear
10:53 AM 48.0 °F - 23.0 °F 37% 29.97 in 10.0 mi NNE 17.3 mph 32.2 mph N/A   Mostly Cloudy
11:53 AM 48.9 °F - 21.9 °F 35% 29.96 in 10.0 mi NNE 23.0 mph 28.8 mph N/A   Scattered Clouds
12:53 PM 50.0 °F - 19.9 °F 31% 29.94 in 10.0 mi NNE 19.6 mph - N/A   Overcast
1:53 PM 50.0 °F - 17.1 °F 27% 29.94 in 10.0 mi NNE 18.4 mph - N/A   Overcast
2:53 PM 48.9 °F - 17.1 °F 28% 29.94 in 10.0 mi North 19.6 mph 27.6 mph N/A   Mostly Cloudy
3:53 PM 48.0 °F - 15.1 °F 27% 29.96 in 10.0 mi North 18.4 mph - N/A   Overcast
4:53 PM 46.0 °F 39.6 °F 16.0 °F 30% 29.96 in 10.0 mi North 15.0 mph - N/A   Overcast
5:53 PM 44.1 °F 37.7 °F 19.0 °F 37% 29.99 in 10.0 mi North 12.7 mph - N/A   Overcast
6:53 PM 43.0 °F 38.2 °F 19.9 °F 40% 29.99 in 10.0 mi NNE 8.1 mph - N/A   Overcast
7:53 PM 37.9 °F 32.1 °F 19.9 °F 48% 30.00 in 10.0 mi NNE 8.1 mph - N/A   Mostly Cloudy
8:53 PM 35.1 °F 31.0 °F 21.0 °F 57% 30.01 in 10.0 mi NW 4.6 mph - 0.00 in   Clear
9:53 PM 34.0 °F 31.0 °F 21.0 °F 59% 30.03 in 10.0 mi North 3.5 mph - N/A   Mostly Cloudy
10:53 PM 33.1 °F 30.0 °F 21.0 °F 61% 30.03 in 10.0 mi North 3.5 mph - N/A   Overcast
11:53 PM 28.9 °F 22.8 °F 19.9 °F 69% 30.03 in 10.0 mi North 5.8 mph - N/A   Clear